[[{"header":{"parameterUnit":"m.s-1","parameterCategory":1,"la1":30.2991,"la2":30.254,"lo1":-89.0895,"lo2":-89.0444,"dy":0.0017,"dx":0.0017,"nx":28,"ny":28,"refTime":"2023-07-28T21:00:00:Z","depth":0,"parameterNumber":2,"parameterNumberName":"U-component_of_WINDS"},"data":[0,0,0,0,0,0,0,0,0,0,0,0,0,0,0,0,0,0,0,0,0,0,0,0,0,0,0,0,0,0,0,0,0,0,0,0,0,0,0,0,0,0,0,0,0,0,0,0,0,0,0,0,0,0,0,0,0,0,2.5149,2.5149,0,2.5176,2.5176,2.5177,2.5127,2.5125,2.5123,2.5122,2.5151,2.5154,2.5156,0,0,0,0,0,0,0,0,0,0,0,0,0,2.5057,2.5059,2.5149,2.5149,2.515,2.5176,2.5176,2.5177,2.5127,2.5125,2.5123,2.5121,2.515,2.5153,2.5156,0,0,0,0,0,0,0,0,0,0,0,0,0,2.5092,2.506,2.5149,2.5128,2.5126,2.5176,2.5176,2.5177,2.5127,2.5125,2.5122,2.512,2.515,2.5153,2.5156,2.5228,0,0,2.5167,2.5169,0,0,0,0,0,0,0,0,2.509,2.5096,2.5131,2.513,2.5128,2.5145,2.5155,2.5194,2.5128,2.5127,2.5122,2.5119,2.5151,2.5155,2.5165,2.523,2.5231,2.5167,2.517,2.5171,2.5172,0,0,0,0,0,0,0,2.5088,2.5094,2.516,2.5131,2.513,2.5118,2.512,2.5162,2.5153,2.5127,2.5123,2.5127,2.515,2.5162,2.5166,2.5231,2.5167,2.5171,2.5173,2.5174,2.5358,2.5361,0,0,0,0,0,0,2.5088,2.5093,2.5159,2.5161,2.5102,2.5122,2.5124,2.5142,2.5152,2.5152,2.5129,2.5125,2.5157,2.5162,2.5166,2.5252,2.5171,2.5174,2.5176,2.5355,2.5359,2.5362,0,0,0,0,0,0,2.5086,2.5094,2.5158,2.5126,2.5133,2.5126,2.5147,2.5144,2.5156,2.5154,2.5153,2.5143,2.5155,2.5161,2.5214,2.5253,2.5176,2.5179,2.5352,2.5356,2.536,2.5424,0,0,0,0,0,0,2.5084,2.5094,2.512,2.5127,2.5135,2.5204,2.5149,2.5147,2.5162,2.5156,2.5166,2.5166,2.5154,2.5209,2.5217,2.5256,2.5182,2.5348,2.5354,2.5359,2.5419,2.543,2.544,0,0,0,0,0,2.5081,2.5137,2.5122,2.513,2.5168,2.5206,2.5211,2.5196,2.5165,2.5192,2.5192,2.5165,2.5247,2.5214,2.5223,2.5264,2.5346,2.5352,2.5358,2.5414,2.5428,2.544,0,0,0,0,0,0,2.5136,2.5138,2.5121,2.5181,2.5194,2.5198,2.5231,2.5211,2.5233,2.5227,2.5207,2.521,2.5267,2.527,2.5234,2.5335,2.5291,2.53,2.5331,2.5344,2.5354,2.5352,2.5185,0,0,0,0,0,2.5155,2.5186,2.5186,2.5239,2.5246,2.5238,2.5254,2.5241,2.5254,2.5259,2.5262,2.5276,2.5305,2.5325,2.5351,2.5419,2.5421,2.5452,2.5462,2.5471,2.5479,2.5517,2.553,2.5382,2.5382,2.5382,0,0,2.5195,2.52,2.522,2.525,2.5259,2.5292,2.5243,2.5279,2.5304,2.5265,2.5315,2.5317,2.5332,2.5393,2.542,2.5398,2.552,2.5479,2.5486,2.5489,2.5524,2.5538,2.5551,2.5386,2.5386,2.5385,0,0,2.5285,2.5292,2.5337,2.5347,2.536,2.5355,2.5366,2.5373,2.5373,2.5423,2.5395,2.5424,2.5474,2.5486,2.5498,2.5595,2.5573,2.5604,2.566,2.5697,2.5709,2.5719,2.5755,2.5768,2.5612,2.5612,2.5612,0,2.5334,2.5382,2.5364,2.5403,2.5417,2.5383,2.543,2.5441,2.5463,2.5474,2.5449,2.5512,2.5519,2.5583,2.5607,2.5618,2.5631,2.5603,2.5709,2.5719,2.5728,2.5762,2.5775,2.5616,2.5615,2.5615,2.5615,0,2.5441,2.5475,2.551,2.5532,2.5551,2.5594,2.5583,2.5605,2.5591,2.5588,2.564,2.5647,2.5675,2.569,2.5676,2.5752,2.5738,2.5711,2.5667,2.5746,2.5778,2.5791,2.5621,2.562,2.5619,2.5618,0,0,2.5566,2.5578,2.5592,2.5602,2.5615,2.5641,2.5683,2.5711,2.573,2.5746,2.5782,2.5826,2.5801,2.5816,2.5803,2.5836,2.5914,2.5805,2.5805,2.5826,2.6,2.6021,2.6036,2.5899,2.5901,2.5903,2.5999,0,2.5657,2.5728,2.5714,2.5785,2.5817,2.5786,2.5823,2.5836,2.5835,2.5862,2.5861,2.5893,2.5858,2.5866,2.5897,2.5898,2.5949,2.5891,2.5933,2.5935,2.5931,2.6052,2.6074,2.6164,2.6011,2.6013,2.6014,0,2.5771,2.5792,2.5866,2.5876,2.5889,2.5922,2.5946,2.5973,2.5987,2.5984,2.6001,2.5984,2.6027,2.5982,2.6042,2.6003,2.602,2.6023,2.6026,2.603,2.598,2.606,2.6192,2.6206,2.6033,2.6032,2.6031,0,2.5857,2.5904,2.5954,2.5964,2.5975,2.6,2.6006,2.6018,2.6036,2.6058,2.6069,2.6096,2.6111,2.6133,2.6123,2.6091,2.6186,2.6139,2.6185,2.6186,2.6207,2.6206,2.6344,2.6217,2.6216,2.6216,2.6216,0,2.596,2.6006,2.5993,2.6024,2.6076,2.606,2.6112,2.6115,2.6126,2.6158,2.6133,2.6164,2.6149,2.6179,2.6172,2.6224,2.6231,2.623,2.6228,2.6233,2.6233,2.6244,2.6238,2.622,2.6219,2.6218,2.6218,0,2.6064,2.6056,2.611,2.6117,2.612,2.6158,2.6165,2.6195,2.6192,2.6233,2.6242,2.6238,2.6273,2.6265,2.6303,2.6298,2.6364,2.6353,2.6359,2.6356,2.6403,2.6399,2.6554,2.6574,2.6433,2.6434,2.6435,0,2.613,2.6166,2.6177,2.6196,2.6204,2.6236,2.6254,2.624,2.626,2.628,2.6308,2.634,2.6365,2.6422,2.6423,2.6453,2.6443,2.6495,2.6447,2.6452,2.6445,2.6443,2.6448,2.6505,2.6507,2.6508,2.6509,0,2.6249,2.6244,2.6271,2.6297,2.632,2.634,2.6357,2.6375,2.6362,2.6387,2.6421,2.6441,2.648,2.6512,2.654,2.6547,2.6527,2.6524,2.6536,2.6542,2.6544,2.6545,2.6386,2.6521,2.6519,2.6519,2.6518,2.6518,2.6337,2.6368,2.6381,2.6412,2.6424,2.6441,2.647,2.6471,2.65,2.653,2.652,2.6561,2.6576,2.661,2.6621,2.6653,2.6633,2.6651,2.6655,2.666,2.6667,2.6539,2.6658,2.6657,2.6657,2.6657,2.6656,0,2.6456,2.6463,2.6492,2.6518,2.6543,2.6521,2.654,2.6562,2.6598,2.6613,2.6638,2.6679,2.6711,2.6715,2.6746,2.6771,2.6762,2.6779,2.6778,2.678,2.6682,2.6668,2.6786,2.6786,2.6786,2.6786,2.6786,2.6786,2.6521,2.6572,2.6569,2.6626,2.6632,2.6671,2.6684,2.6701,2.6713,2.676,2.6786,2.6788,2.68,2.6831,2.686,2.6861,2.6873,2.6894,2.6892,2.68,2.6787,2.6774,2.6762,2.6897,2.6897,2.6987,2.6988,2.6989]},{"header":{"parameterUnit":"m.s-1","parameterCategory":1,"la1":30.2991,"la2":30.254,"lo1":-89.0895,"lo2":-89.0444,"dy":0.0017,"dx":0.0017,"nx":28,"ny":28,"refTime":"2023-07-28T21:00:00:Z","depth":0,"parameterNumber":3,"parameterNumberName":"V-component_of_WINDS"},"data":[0,0,0,0,0,0,0,0,0,0,0,0,0,0,0,0,0,0,0,0,0,0,0,0,0,0,0,0,0,0,0,0,0,0,0,0,0,0,0,0,0,0,0,0,0,0,0,0,0,0,0,0,0,0,0,0,0,0,-0.8486,-0.8486,0,-0.8476,-0.8476,-0.8476,-0.847,-0.847,-0.847,-0.847,-0.8459,-0.8459,-0.8459,0,0,0,0,0,0,0,0,0,0,0,0,0,-0.8501,-0.85,-0.8486,-0.8486,-0.8486,-0.8476,-0.8476,-0.8476,-0.847,-0.847,-0.847,-0.847,-0.8459,-0.8459,-0.8459,0,0,0,0,0,0,0,0,0,0,0,0,0,-0.8493,-0.85,-0.8486,-0.8482,-0.8481,-0.8476,-0.8476,-0.8476,-0.847,-0.847,-0.847,-0.847,-0.8459,-0.8459,-0.8459,-0.8457,0,0,-0.8457,-0.8457,0,0,0,0,0,0,0,0,-0.8493,-0.8492,-0.8483,-0.8482,-0.8482,-0.8474,-0.8477,-0.8469,-0.847,-0.8474,-0.847,-0.847,-0.8464,-0.8463,-0.8462,-0.8456,-0.8456,-0.8457,-0.8457,-0.8457,-0.8457,0,0,0,0,0,0,0,-0.8494,-0.8493,-0.8482,-0.8482,-0.8482,-0.8481,-0.8479,-0.8476,-0.847,-0.8474,-0.8474,-0.8473,-0.8464,-0.8462,-0.8461,-0.8456,-0.8457,-0.8457,-0.8457,-0.8457,-0.8451,-0.8451,0,0,0,0,0,0,-0.8495,-0.8493,-0.8482,-0.8482,-0.8487,-0.848,-0.8479,-0.8477,-0.847,-0.8469,-0.8473,-0.8472,-0.8463,-0.8462,-0.8461,-0.846,-0.8457,-0.8456,-0.8456,-0.845,-0.8451,-0.8451,0,0,0,0,0,0,-0.8495,-0.8494,-0.8483,-0.8487,-0.8486,-0.848,-0.8478,-0.8477,-0.8475,-0.8469,-0.8467,-0.8472,-0.8463,-0.8461,-0.8458,-0.8459,-0.8456,-0.8456,-0.845,-0.8451,-0.8451,-0.8457,0,0,0,0,0,0,-0.8496,-0.8494,-0.8493,-0.8487,-0.8486,-0.848,-0.8478,-0.8476,-0.8474,-0.8474,-0.8467,-0.8466,-0.8463,-0.8459,-0.8458,-0.8459,-0.8456,-0.845,-0.845,-0.8451,-0.8456,-0.8457,-0.8457,0,0,0,0,0,-0.8496,-0.8495,-0.8493,-0.8492,-0.8484,-0.848,-0.8479,-0.8475,-0.8474,-0.8473,-0.847,-0.8467,-0.8459,-0.8459,-0.8458,-0.8458,-0.845,-0.845,-0.8451,-0.8456,-0.8457,-0.8457,0,0,0,0,0,0,-0.85,-0.8494,-0.8492,-0.8488,-0.8485,-0.8479,-0.8478,-0.8476,-0.8472,-0.8472,-0.8467,-0.8466,-0.8463,-0.846,-0.846,-0.8457,-0.8455,-0.8454,-0.8459,-0.846,-0.846,-0.8461,-0.8455,0,0,0,0,0,-0.85,-0.8498,-0.8492,-0.849,-0.8488,-0.8484,-0.8482,-0.8479,-0.8475,-0.8474,-0.847,-0.8466,-0.8463,-0.8461,-0.8458,-0.8456,-0.8455,-0.8456,-0.8456,-0.8457,-0.8457,-0.8458,-0.8458,-0.8451,-0.8451,-0.8451,0,0,-0.8501,-0.8497,-0.8496,-0.849,-0.8487,-0.8485,-0.8482,-0.848,-0.8478,-0.8473,-0.847,-0.8468,-0.8463,-0.8461,-0.846,-0.8459,-0.8459,-0.8457,-0.8458,-0.8457,-0.8458,-0.8459,-0.8459,-0.8451,-0.8451,-0.8451,0,0,-0.8501,-0.8498,-0.8496,-0.8494,-0.849,-0.8487,-0.8487,-0.8482,-0.848,-0.8477,-0.8474,-0.8472,-0.8467,-0.8465,-0.8463,-0.8465,-0.8462,-0.8464,-0.8467,-0.8467,-0.8468,-0.8469,-0.847,-0.8471,-0.8464,-0.8464,-0.8464,0,-0.8502,-0.8499,-0.8495,-0.8493,-0.8492,-0.8488,-0.8487,-0.8485,-0.848,-0.8479,-0.8477,-0.8472,-0.8469,-0.8467,-0.8468,-0.8466,-0.8466,-0.8464,-0.8468,-0.8469,-0.8469,-0.8471,-0.8472,-0.8464,-0.8464,-0.8464,-0.8464,0,-0.8501,-0.8499,-0.8498,-0.8495,-0.8493,-0.8491,-0.8488,-0.8487,-0.8485,-0.8483,-0.8481,-0.8477,-0.8474,-0.8474,-0.8471,-0.8472,-0.8471,-0.8469,-0.8467,-0.847,-0.8472,-0.8472,-0.8465,-0.8465,-0.8465,-0.8464,0,0,-0.8502,-0.8498,-0.8498,-0.8497,-0.8494,-0.8492,-0.8491,-0.8489,-0.8488,-0.8486,-0.8485,-0.8482,-0.8481,-0.8478,-0.8476,-0.8476,-0.848,-0.8474,-0.8474,-0.8476,-0.8483,-0.8485,-0.8486,-0.8478,-0.8479,-0.8479,-0.8484,0,-0.8502,-0.85,-0.8498,-0.8497,-0.8496,-0.8494,-0.8493,-0.8491,-0.8489,-0.8488,-0.8486,-0.8485,-0.8482,-0.8481,-0.8482,-0.8479,-0.8481,-0.8479,-0.8479,-0.8479,-0.848,-0.8486,-0.8488,-0.8493,-0.8484,-0.8484,-0.8484,0,-0.8502,-0.8501,-0.85,-0.8499,-0.8498,-0.8497,-0.8496,-0.8495,-0.8493,-0.8492,-0.8491,-0.8489,-0.8489,-0.8486,-0.8487,-0.8485,-0.8485,-0.8484,-0.8484,-0.8484,-0.8482,-0.8488,-0.8494,-0.8495,-0.8485,-0.8485,-0.8485,0,-0.8504,-0.8502,-0.8502,-0.8501,-0.8499,-0.8499,-0.8498,-0.8497,-0.8496,-0.8495,-0.8495,-0.8494,-0.8493,-0.8493,-0.8491,-0.8489,-0.8492,-0.8489,-0.8491,-0.8492,-0.8492,-0.8492,-0.85,-0.8491,-0.8491,-0.8491,-0.8491,0,-0.8505,-0.8505,-0.8503,-0.8503,-0.8503,-0.8501,-0.8502,-0.8501,-0.85,-0.85,-0.8497,-0.8498,-0.8495,-0.8495,-0.8493,-0.8495,-0.8494,-0.8494,-0.8494,-0.8494,-0.8495,-0.8494,-0.8494,-0.8491,-0.8491,-0.8491,-0.8491,0,-0.8507,-0.8506,-0.8506,-0.8505,-0.8504,-0.8505,-0.8504,-0.8504,-0.8503,-0.8503,-0.8503,-0.8502,-0.8502,-0.85,-0.85,-0.8499,-0.8501,-0.85,-0.8502,-0.8502,-0.8505,-0.8505,-0.8513,-0.8515,-0.8504,-0.8504,-0.8505,0,-0.8508,-0.8508,-0.8508,-0.8508,-0.8507,-0.8508,-0.8508,-0.8506,-0.8506,-0.8506,-0.8507,-0.8507,-0.8507,-0.8508,-0.8507,-0.8507,-0.8506,-0.8509,-0.8506,-0.8508,-0.8508,-0.8508,-0.8509,-0.851,-0.851,-0.851,-0.851,0,-0.851,-0.851,-0.851,-0.8511,-0.8511,-0.8511,-0.8511,-0.8512,-0.851,-0.8511,-0.8512,-0.8512,-0.8513,-0.8514,-0.8514,-0.8514,-0.8512,-0.8511,-0.8512,-0.8513,-0.8515,-0.8515,-0.8505,-0.8511,-0.8511,-0.8511,-0.8511,-0.8511,-0.8512,-0.8513,-0.8513,-0.8514,-0.8514,-0.8515,-0.8516,-0.8516,-0.8516,-0.8517,-0.8516,-0.8518,-0.8518,-0.8519,-0.8519,-0.8521,-0.8519,-0.852,-0.852,-0.8521,-0.8522,-0.8514,-0.8521,-0.852,-0.852,-0.852,-0.852,0,-0.8515,-0.8516,-0.8516,-0.8517,-0.8519,-0.8518,-0.8518,-0.8519,-0.8521,-0.8522,-0.8523,-0.8525,-0.8526,-0.8526,-0.8527,-0.8529,-0.8528,-0.8529,-0.8529,-0.853,-0.8522,-0.8522,-0.853,-0.853,-0.853,-0.853,-0.853,-0.853,-0.8516,-0.8518,-0.8519,-0.8521,-0.8522,-0.8524,-0.8524,-0.8526,-0.8526,-0.8529,-0.853,-0.8531,-0.8531,-0.8533,-0.8535,-0.8535,-0.8536,-0.8538,-0.8538,-0.8531,-0.853,-0.8529,-0.8529,-0.8538,-0.8538,-0.8545,-0.8545,-0.8545]}]]